Content
SEND FEEDBACK

Daily
Averages
Monthly
Summary
United States of America

MENDOTA, CALIFORNIA


Home > North America > United States > California
Elevation: 180 feet     Latitude: 36 47N     Longitude: 120 22W

WEATHER
 
SELECT A DAY
Number of Records: 150,871;   Date Range: 9/2/98 - 7/26/14
 
SHARE

PRINT THIS DATA

[ ← Previous Day ]
WEATHER ALMANAC - JANUARY 31, 2013
[ Next Day → ]
[ °C ]   °F
Weather ElementAverageHighLow
Temperature48.7 °F64 °F (2:53 pm)35.1 °F (6:53 am)
Dewpoint39.7 °F43 °F (9:53 am)33.1 °F (6:53 am)
Humidity73.9 %93 % (4:53 am)45 % (2:53 pm)
Barometer30.25 in30.31 in (1:53 am)30.19 in (4:53 pm)
Wind Speed1.2 mph4.6 mph (3:53 am)
Weather ElementAverage
Visibility7.9 mi
Wind DirectionENE (62.6 °)

Weather ElementTotal
Precipitation---
Heating Degree Days15.5 (Base 65)
Averaged from 23 records on January 31, 2013
WEATHER CONDITIONS BREAKOUT
WIND DIRECTION BREAKOUT
WEATHER BY HOUR - JANUARY 31, 2013
[ °C ]   °F
Local TimeTemperatureDewpointHumidityBarometerVisibilityWind DirectionWind SpeedGust SpeedPrecipitationEventsConditions
1:53 AM41.0 °F37.0 °F86 %30.31 in9.0 miEast (80°)3.5 mphClear
2:53 AM39.0 °F36.0 °F89 %30.30 in9.0 miCalmClear
3:53 AM39.0 °F36.0 °F89 %30.29 in10.0 miEast (90°)4.6 mphClear
4:53 AM37.0 °F35.1 °F93 %30.28 in8.0 miCalmClear
5:53 AM36.0 °F34.0 °F93 %30.28 in7.0 miCalmClear
6:53 AM35.1 °F33.1 °F92 %30.29 in4.0 miWSW (250°)3.5 mphClear
7:53 AM37.0 °F35.1 °F93 %30.30 in4.0 miCalmClear
8:53 AM45.0 °F39.9 °F82 %30.31 in10.0 miCalmClear
9:53 AM51.1 °F43.0 °F74 %30.31 in10.0 miCalmClear
10:53 AM55.9 °F42.1 °F60 %30.31 in10.0 miCalmClear
11:53 AM59.0 °F42.1 °F53 %30.29 in9.0 miCalmClear
12:53 PM61.0 °F42.1 °F50 %30.26 in9.0 miCalmClear
1:53 PM63.0 °F42.1 °F46 %30.24 in9.0 miCalmClear
2:53 PM64.0 °F42.1 °F45 %30.22 in9.0 miCalmClear
3:53 PM64.0 °F42.1 °F45 %30.20 in10.0 miNNW (330°)4.6 mphClear
4:53 PM60.1 °F42.1 °F51 %30.19 in10.0 miWNW (300°)3.5 mphClear
5:53 PM54.0 °F42.1 °F64 %30.19 in10.0 miWNW (300°)3.5 mphClear
6:53 PM53.1 °F43.0 °F69 %30.20 in9.0 miCalmClear
7:53 PM48.0 °F42.1 °F80 %30.20 in7.0 miCalmClear
8:53 PM46.0 °F41.0 °F83 %30.21 in6.0 miCalmHaze
9:53 PM45.0 °F39.9 °F82 %30.21 in5.0 miCalmHaze
10:53 PM44.1 °F41.0 °F89 %30.22 in4.0 miCalmClear
11:53 PM42.1 °F39.9 °F92 %30.22 in4.0 miEast (90°)3.5 mphClear
Hourly data recorded from KMAE, located miles away from Mendota, California







STORIES FROM OUR PARTNERS